contact:dominique.lefevre@mio.osupytheas.fr, maurice.libes@osupytheas.fr, didier.mallarino@osupytheas.fr
Project:EMSO http://www.emso-fr.org/EMSO-France
Depth: 2436.0 m
Title:EMSO Ligure Ouest : Data MII capteur AQUADOPP
Date,Latitude,Longitude,X_East,Y_North,Z_Up,Amplitude_X,Amplitude_Y,Amplitude_Z,Batterie,SoundSpeed,Heading,Pitch,Roll,Pressure,TIS,Speed,Direction
, degrees North, degrees East, m.s-1, m.s-1,m.s-1, 1, 1, 1, Volt, m.s-1, degree, degree, degree, dbar, degree_C, m.s-1, degree
2023-12-25T00:04:03,42.805,6.029,-0.043,-0.008,-0.022,108.0,106.0,105.0,13.4,1505.2,3.3,-0.8,1.8,2471.531,13.29,0.043,259.5
2023-12-25T00:07:03,42.805,6.029,-0.034,-0.01,-0.007,109.0,107.0,103.0,13.3,1505.2,347.1,-0.8,1.8,2471.515,13.29,0.035,253.6
2023-12-25T00:10:03,42.805,6.029,-0.016,0.009,-0.028,108.0,107.0,106.0,13.4,1505.2,358.4,-0.8,1.8,2471.53,13.29,0.018,299.4
2023-12-25T00:13:03,42.805,6.029,-0.027,0.0,-0.034,108.0,107.0,104.0,13.4,1505.2,359.1,-0.8,1.8,2471.496,13.29,0.026,270.0
2023-12-25T00:16:03,42.805,6.029,-0.029,-0.009,-0.01,107.0,107.0,105.0,13.4,1505.2,343.6,-0.8,1.8,2471.478,13.29,0.03,252.8
2023-12-25T00:19:03,42.805,6.029,-0.043,0.006,-0.021,108.0,106.0,105.0,13.3,1505.2,350.0,-0.7,1.8,2471.497,13.29,0.043,277.9
2023-12-25T00:22:03,42.805,6.029,-0.03,0.003,-0.026,108.0,107.0,105.0,13.4,1505.2,354.0,-0.8,1.8,2471.464,13.29,0.03,275.7
2023-12-25T00:25:03,42.805,6.029,0.008,-0.005,-0.004,108.0,106.0,105.0,13.3,1505.2,353.5,-0.8,1.8,2471.481,13.29,0.009,122.0
2023-12-25T00:28:03,42.805,6.029,-0.006,0.006,0.001,108.0,108.0,104.0,13.4,1505.2,349.9,-0.8,1.9,2471.483,13.29,0.008,315.0
2023-12-25T00:31:03,42.805,6.029,-0.012,0.005,-0.037,108.0,108.0,105.0,13.4,1505.2,348.3,-0.7,1.8,2471.471,13.29,0.013,292.6
2023-12-25T00:34:03,42.805,6.029,-0.026,0.0,-0.036,108.0,107.0,104.0,13.4,1505.2,3.2,-0.8,1.8,2471.483,13.29,0.026,270.0
2023-12-25T00:37:03,42.805,6.029,-0.018,0.01,-0.018,108.0,107.0,105.0,13.4,1505.2,340.8,-0.7,1.8,2471.507,13.29,0.02,299.1
2023-12-25T00:40:03,42.805,6.029,-0.011,-0.005,0.0,107.0,108.0,104.0,13.3,1505.2,345.3,-0.8,1.8,2471.511,13.29,0.012,245.6
2023-12-25T00:43:03,42.805,6.029,-0.013,0.009,-0.013,108.0,108.0,105.0,13.4,1505.2,0.8,-0.8,1.8,2471.49,13.29,0.015,304.7
2023-12-25T00:46:03,42.805,6.029,-0.012,-0.003,0.002,108.0,107.0,104.0,13.4,1505.2,350.4,-0.7,1.8,2471.511,13.29,0.012,256.0
2023-12-25T00:49:03,42.805,6.029,-0.008,0.002,-0.02,108.0,107.0,104.0,13.4,1505.2,341.3,-0.8,1.8,2471.483,13.29,0.008,284.0
2023-12-25T00:52:03,42.805,6.029,-0.018,-0.012,-0.029,108.0,107.0,104.0,13.4,1505.2,348.3,-0.8,1.8,2471.499,13.29,0.021,236.3
2023-12-25T00:55:03,42.805,6.029,-0.023,0.001,-0.036,107.0,108.0,105.0,13.4,1505.2,359.2,-0.8,1.8,2471.464,13.29,0.023,272.5
2023-12-25T00:58:03,42.805,6.029,0.004,-0.013,-0.002,108.0,108.0,106.0,13.4,1505.2,344.7,-0.8,1.8,2471.495,13.29,0.013,162.9
2023-12-25T01:04:03,42.805,6.029,-0.019,0.02,0.012,109.0,108.0,104.0,13.3,1505.2,346.1,-0.8,1.8,2471.534,13.29,0.027,316.5
2023-12-25T01:07:03,42.805,6.029,-0.024,-0.008,-0.04,110.0,107.0,105.0,13.4,1505.2,347.7,-0.8,1.8,2471.513,13.29,0.025,251.6
2023-12-25T01:10:03,42.805,6.029,-0.008,-0.005,-0.01,109.0,108.0,106.0,13.4,1505.2,355.6,-0.8,1.8,2471.523,13.29,0.009,238.0
2023-12-25T01:13:03,42.805,6.029,-0.021,0.005,-0.01,110.0,108.0,105.0,13.3,1505.2,344.2,-0.8,1.8,2471.543,13.29,0.021,283.4
2023-12-25T01:16:03,42.805,6.029,-0.021,0.006,-0.023,109.0,107.0,105.0,13.4,1505.2,357.7,-0.8,1.8,2471.464,13.29,0.021,285.9
2023-12-25T01:19:03,42.805,6.029,-0.01,-0.006,0.0,108.0,106.0,105.0,13.3,1505.2,340.7,-0.8,1.8,2471.485,13.29,0.011,239.0
2023-12-25T01:22:03,42.805,6.029,0.004,-0.018,0.0,107.0,109.0,106.0,13.4,1505.2,349.5,-0.7,1.8,2471.537,13.29,0.018,167.5
2023-12-25T01:25:03,42.805,6.029,-0.034,-0.005,-0.022,107.0,107.0,105.0,13.4,1505.2,359.2,-0.8,1.8,2471.489,13.29,0.034,261.6
2023-12-25T01:28:03,42.805,6.029,-0.025,-0.008,-0.039,107.0,107.0,105.0,13.3,1505.2,351.2,-0.7,1.8,2471.514,13.29,0.026,252.3
2023-12-25T01:31:03,42.805,6.029,-0.015,0.007,-0.022,108.0,107.0,105.0,13.4,1505.2,3.1,-0.8,1.8,2471.487,13.29,0.016,295.0
2023-12-25T01:34:03,42.805,6.029,-0.042,-0.005,-0.035,107.0,106.0,104.0,13.3,1505.2,354.9,-0.8,1.8,2471.508,13.29,0.042,263.2
2023-12-25T01:37:03,42.805,6.029,0.008,0.003,-0.012,107.0,107.0,103.0,13.3,1505.2,1.6,-0.8,1.8,2471.512,13.29,0.008,69.4
2023-12-25T01:40:03,42.805,6.029,-0.016,-0.017,-0.026,108.0,107.0,103.0,13.3,1505.2,338.9,-0.8,1.8,2471.522,13.29,0.023,223.3
2023-12-25T01:43:03,42.805,6.029,-0.024,0.001,-0.016,108.0,108.0,105.0,13.4,1505.2,357.4,-0.8,1.8,2471.49,13.29,0.024,272.4
2023-12-25T01:46:03,42.805,6.029,-0.029,-0.013,-0.014,107.0,108.0,105.0,13.4,1505.2,3.0,-0.7,1.8,2471.541,13.29,0.031,245.9
2023-12-25T01:49:03,42.805,6.029,-0.016,-0.013,-0.036,106.0,107.0,106.0,13.3,1505.2,351.1,-0.8,1.8,2471.522,13.29,0.02,230.9
2023-12-25T01:52:03,42.805,6.029,-0.024,0.02,-0.021,108.0,106.0,105.0,13.4,1505.2,340.8,-0.8,1.8,2471.526,13.29,0.031,309.8
2023-12-25T01:55:03,42.805,6.029,-0.023,-0.001,-0.041,107.0,106.0,104.0,13.4,1505.2,353.9,-0.8,1.8,2471.488,13.29,0.023,267.5
2023-12-25T01:58:03,42.805,6.029,-0.03,0.005,-0.02,108.0,107.0,105.0,13.3,1505.2,354.8,-0.8,1.8,2471.502,13.29,0.03,279.5
2023-12-25T02:04:03,42.805,6.029,0.001,0.0,0.009,107.0,107.0,104.0,13.4,1505.2,0.8,-0.8,1.8,2471.542,13.29,0.001,90.0
2023-12-25T02:07:03,42.805,6.029,-0.006,-0.001,-0.017,109.0,107.0,105.0,13.4,1505.2,344.7,-0.8,1.8,2471.548,13.29,0.006,260.5
2023-12-25T02:10:03,42.805,6.029,-0.012,0.01,-0.01,107.0,107.0,106.0,13.4,1505.2,351.7,-0.8,1.8,2471.568,13.29,0.015,309.8
2023-12-25T02:13:03,42.805,6.029,-0.019,-0.001,-0.013,108.0,104.0,104.0,13.4,1505.2,357.7,-0.8,1.8,2471.531,13.29,0.019,267.0
2023-12-25T02:16:03,42.805,6.029,-0.009,-0.009,-0.018,108.0,106.0,103.0,13.4,1505.2,353.2,-0.7,1.9,2471.538,13.29,0.012,225.0
2023-12-25T02:19:03,42.805,6.029,-0.022,0.0,-0.016,106.0,107.0,104.0,13.4,1505.2,349.4,-0.8,1.8,2471.575,13.29,0.022,270.0
2023-12-25T02:22:03,42.805,6.029,-0.032,0.009,-0.031,106.0,107.0,103.0,13.3,1505.2,350.8,-0.8,1.8,2471.574,13.29,0.033,285.7
2023-12-25T02:25:03,42.805,6.029,-0.014,-0.006,-0.058,106.0,106.0,104.0,13.3,1505.2,356.0,-0.7,1.8,2471.549,13.29,0.015,246.8
2023-12-25T02:28:03,42.805,6.029,-0.013,-0.009,-0.01,107.0,108.0,104.0,13.4,1505.2,359.1,-0.7,1.8,2471.519,13.29,0.015,235.3
2023-12-25T02:31:03,42.805,6.029,-0.006,0.0,-0.038,107.0,107.0,103.0,13.4,1505.2,343.5,-0.8,1.8,2471.561,13.29,0.006,270.0
2023-12-25T02:34:03,42.805,6.029,0.018,-0.007,0.0,108.0,105.0,104.0,13.4,1505.2,355.3,-0.8,1.8,2471.53,13.29,0.019,111.2
2023-12-25T02:37:03,42.805,6.029,-0.02,-0.001,-0.011,107.0,106.0,104.0,13.3,1505.2,349.9,-0.8,1.8,2471.547,13.29,0.02,267.1
2023-12-25T02:40:03,42.805,6.029,-0.018,0.024,0.009,107.0,106.0,103.0,13.3,1505.2,351.1,-0.8,1.8,2471.526,13.29,0.03,323.1
2023-12-25T02:43:03,42.805,6.029,-0.02,-0.009,-0.008,106.0,106.0,104.0,13.3,1505.2,342.9,-0.8,1.8,2471.578,13.29,0.021,245.8
2023-12-25T02:46:03,42.805,6.029,-0.012,-0.002,-0.038,107.0,106.0,103.0,13.4,1505.2,357.6,-0.8,1.8,2471.551,13.29,0.012,260.5
2023-12-25T02:49:03,42.805,6.029,-0.008,-0.006,-0.032,107.0,107.0,103.0,13.4,1505.2,354.1,-0.8,1.8,2471.606,13.29,0.01,233.1
2023-12-25T02:52:03,42.805,6.029,-0.002,-0.011,-0.024,107.0,105.0,104.0,13.3,1505.2,347.5,-0.7,1.8,2471.575,13.29,0.011,190.3
2023-12-25T02:55:03,42.805,6.029,-0.022,-0.006,-0.012,107.0,105.0,103.0,13.4,1505.2,353.9,-0.8,1.8,2471.551,13.29,0.022,254.7
2023-12-25T02:58:03,42.805,6.029,0.006,0.004,-0.046,106.0,107.0,104.0,13.3,1505.2,346.5,-0.8,1.8,2471.58,13.29,0.007,56.3
2023-12-25T03:04:03,42.805,6.029,-0.04,0.006,-0.011,108.0,107.0,103.0,13.4,1505.2,345.7,-0.8,1.8,2471.661,13.29,0.04,278.5
2023-12-25T03:07:03,42.805,6.029,-0.006,-0.013,-0.023,107.0,106.0,104.0,13.4,1505.2,4.7,-0.8,1.8,2471.651,13.29,0.014,204.8
2023-12-25T03:10:03,42.805,6.029,0.002,-0.011,-0.039,108.0,106.0,103.0,13.4,1505.2,342.5,-0.8,1.8,2471.6,13.29,0.011,169.7
2023-12-25T03:13:03,42.805,6.029,-0.007,-0.031,-0.009,107.0,106.0,103.0,13.4,1505.2,351.7,-0.8,1.8,2471.608,13.29,0.031,192.7
2023-12-25T03:16:03,42.805,6.029,0.0,-0.007,0.0,107.0,106.0,104.0,13.4,1505.2,4.0,-0.8,1.8,2471.626,13.29,0.007,180.0
2023-12-25T03:19:03,42.805,6.029,-0.021,-0.021,0.002,107.0,106.0,104.0,13.4,1505.2,340.8,-0.8,1.8,2471.617,13.29,0.029,225.0
2023-12-25T03:22:03,42.805,6.029,-0.001,-0.015,-0.036,107.0,107.0,104.0,13.4,1505.2,350.0,-0.7,1.8,2471.617,13.29,0.015,183.8
2023-12-25T03:25:03,42.805,6.029,-0.019,0.0,-0.001,108.0,106.0,104.0,13.4,1505.2,353.0,-0.8,1.8,2471.603,13.29,0.019,270.0
2023-12-25T03:28:03,42.805,6.029,-0.025,-0.004,-0.043,108.0,106.0,104.0,13.3,1505.2,356.2,-0.8,1.8,2471.624,13.29,0.025,260.9
2023-12-25T03:31:03,42.805,6.029,-0.005,-0.006,-0.008,107.0,107.0,104.0,13.4,1505.2,347.1,-0.8,1.8,2471.626,13.29,0.007,219.8
2023-12-25T03:34:03,42.805,6.029,-0.041,-0.017,-0.031,107.0,107.0,104.0,13.3,1505.2,347.6,-0.8,1.8,2471.624,13.29,0.044,247.5
2023-12-25T03:37:03,42.805,6.029,-0.014,0.013,-0.024,106.0,107.0,104.0,13.3,1505.2,355.6,-0.8,1.8,2471.635,13.29,0.019,312.9
2023-12-25T03:40:03,42.805,6.029,-0.014,0.014,-0.001,108.0,107.0,103.0,13.3,1505.2,1.5,-0.8,1.8,2471.611,13.29,0.019,315.0
2023-12-25T03:43:03,42.805,6.029,-0.017,-0.015,-0.022,107.0,107.0,104.0,13.4,1505.2,357.6,-0.8,1.8,2471.595,13.29,0.022,228.6
2023-12-25T03:46:03,42.805,6.029,-0.005,-0.025,-0.028,107.0,106.0,104.0,13.4,1505.2,355.8,-0.8,1.8,2471.618,13.29,0.025,191.3
2023-12-25T03:49:03,42.805,6.029,-0.013,-0.011,-0.017,107.0,108.0,103.0,13.4,1505.2,0.8,-0.8,1.8,2471.669,13.29,0.017,229.8
2023-12-25T03:52:03,42.805,6.029,-0.02,-0.007,-0.046,107.0,108.0,104.0,13.4,1505.2,348.4,-0.7,1.8,2471.583,13.29,0.021,250.7
2023-12-25T03:55:03,42.805,6.029,0.0,-0.008,-0.024,106.0,106.0,105.0,13.4,1505.2,356.7,-0.7,1.8,2471.672,13.29,0.008,180.0
2023-12-25T03:58:03,42.805,6.029,-0.014,0.006,-0.028,106.0,106.0,104.0,13.3,1505.2,344.7,-0.8,1.8,2471.609,13.29,0.015,293.2
2023-12-25T04:04:03,42.805,6.029,0.009,-0.022,-0.047,106.0,106.0,104.0,13.3,1505.2,355.6,-0.7,1.8,2471.68,13.29,0.023,157.8
2023-12-25T04:07:03,42.805,6.029,0.002,-0.004,-0.016,107.0,107.0,103.0,13.4,1505.2,341.3,-0.8,1.8,2471.679,13.29,0.004,153.4
2023-12-25T04:10:03,42.805,6.029,0.003,-0.02,-0.046,106.0,107.0,103.0,13.3,1505.2,347.4,-0.8,1.8,2471.725,13.29,0.02,171.5
2023-12-25T04:13:03,42.805,6.029,-0.015,-0.004,-0.018,107.0,106.0,104.0,13.4,1505.2,2.2,-0.8,1.8,2471.656,13.29,0.015,255.1
2023-12-25T04:16:03,42.805,6.029,0.006,-0.029,-0.024,107.0,106.0,103.0,13.4,1505.2,358.3,-0.8,1.9,2471.668,13.29,0.029,168.3
2023-12-25T04:19:03,42.805,6.029,-0.007,-0.004,-0.01,108.0,105.0,105.0,13.4,1505.2,2.4,-0.7,1.8,2471.659,13.29,0.008,240.3
2023-12-25T04:22:03,42.805,6.029,0.0,-0.007,-0.015,106.0,107.0,105.0,13.3,1505.2,339.1,-0.8,1.8,2471.673,13.29,0.007,180.0
2023-12-25T04:25:03,42.805,6.029,-0.011,-0.015,-0.044,109.0,107.0,104.0,13.4,1505.2,347.0,-0.7,1.8,2471.682,13.29,0.018,216.3
2023-12-25T04:28:03,42.805,6.029,-0.005,-0.017,-0.024,108.0,107.0,103.0,13.4,1505.2,359.2,-0.8,1.8,2471.662,13.29,0.017,196.4
2023-12-25T04:31:03,42.805,6.029,-0.009,-0.012,-0.027,107.0,107.0,104.0,13.3,1505.2,353.9,-0.7,1.8,2471.656,13.29,0.015,216.9
2023-12-25T04:34:03,42.805,6.029,-0.014,-0.037,-0.002,106.0,106.0,105.0,13.4,1505.2,354.1,-0.7,1.8,2471.655,13.29,0.039,200.7
2023-12-25T04:37:03,42.805,6.029,-0.004,0.0,-0.018,107.0,105.0,104.0,13.4,1505.2,343.5,-0.8,1.9,2471.664,13.29,0.004,270.0
2023-12-25T04:40:03,42.805,6.029,0.015,-0.024,-0.066,107.0,106.0,104.0,13.4,1505.2,348.3,-0.8,1.8,2471.713,13.29,0.028,148.0
2023-12-25T04:43:03,42.805,6.029,-0.01,-0.015,-0.035,108.0,107.0,103.0,13.4,1505.2,355.0,-0.8,1.8,2471.664,13.29,0.018,213.7
2023-12-25T04:46:03,42.805,6.029,0.008,0.0,-0.021,107.0,106.0,104.0,13.3,1505.2,3.9,-0.7,1.8,2471.646,13.29,0.008,90.0
2023-12-25T04:49:03,42.805,6.029,-0.019,-0.022,-0.014,108.0,105.0,103.0,13.4,1505.2,3.2,-0.8,1.8,2471.662,13.29,0.029,220.8
2023-12-25T04:52:03,42.805,6.029,-0.009,-0.008,-0.03,107.0,106.0,104.0,13.4,1505.2,348.8,-0.8,1.8,2471.68,13.29,0.012,228.4
2023-12-25T04:55:03,42.805,6.029,-0.021,-0.03,-0.024,106.0,105.0,104.0,13.4,1505.2,2.3,-0.8,1.8,2471.667,13.29,0.036,215.0
2023-12-25T04:58:03,42.805,6.029,-0.018,-0.027,-0.031,107.0,105.0,104.0,13.4,1505.2,346.1,-0.8,1.8,2471.695,13.29,0.032,213.7
2023-12-25T05:01:03,42.805,6.029,0.016,-0.003,0.006,107.0,105.0,104.0,13.4,1505.2,354.7,-0.7,1.8,2471.662,13.29,0.016,100.6
2023-12-25T05:04:03,42.805,6.029,0.0,-0.027,-0.012,106.0,106.0,103.0,13.4,1505.2,350.2,-0.8,1.8,2471.68,13.29,0.026,180.0
2023-12-25T05:07:03,42.805,6.029,-0.009,-0.024,-0.025,107.0,105.0,103.0,13.4,1505.2,358.2,-0.8,1.8,2471.681,13.29,0.025,200.6
2023-12-25T05:10:03,42.805,6.029,0.011,-0.017,0.002,106.0,106.0,104.0,13.3,1505.2,341.5,-0.8,1.8,2471.708,13.29,0.02,147.1
2023-12-25T05:13:03,42.805,6.029,-0.007,-0.026,-0.015,107.0,107.0,105.0,13.3,1505.2,352.9,-0.8,1.8,2471.698,13.29,0.026,195.1
2023-12-25T05:16:03,42.805,6.029,-0.011,-0.013,-0.017,108.0,108.0,103.0,13.3,1505.2,4.6,-0.8,1.8,2471.703,13.29,0.017,220.2
2023-12-25T05:19:03,42.805,6.029,-0.011,-0.041,-0.017,107.0,107.0,103.0,13.4,1505.2,340.8,-0.8,1.8,2471.722,13.29,0.042,195.0
2023-12-25T05:22:03,42.805,6.029,-0.007,-0.013,-0.007,108.0,107.0,102.0,13.4,1505.2,352.5,-0.8,1.8,2471.686,13.29,0.014,208.3
2023-12-25T05:25:03,42.805,6.029,-0.001,0.0,0.017,108.0,105.0,102.0,13.3,1505.2,358.2,-0.8,1.8,2471.646,13.29,0.001,270.0
2023-12-25T05:28:03,42.805,6.029,0.004,-0.044,-0.021,105.0,106.0,104.0,13.3,1505.2,340.2,-0.8,1.8,2471.689,13.29,0.044,174.8
2023-12-25T05:31:03,42.805,6.029,-0.001,-0.021,-0.019,108.0,107.0,102.0,13.3,1505.2,355.9,-0.7,1.9,2471.712,13.29,0.021,182.7
2023-12-25T05:34:03,42.805,6.029,0.009,-0.026,-0.03,107.0,105.0,104.0,13.3,1505.2,0.8,-0.7,1.8,2471.703,13.29,0.027,160.9
2023-12-25T05:37:03,42.805,6.029,0.007,-0.024,-0.033,106.0,105.0,103.0,13.3,1505.2,348.6,-0.8,1.8,2471.699,13.29,0.025,163.7
2023-12-25T05:40:03,42.805,6.029,0.012,-0.021,0.023,108.0,106.0,103.0,13.4,1505.2,352.3,-0.7,1.8,2471.7,13.29,0.024,150.3
2023-12-25T05:43:03,42.805,6.029,-0.002,-0.033,-0.023,108.0,107.0,104.0,13.3,1505.2,343.5,-0.8,1.8,2471.685,13.29,0.033,183.5
2023-12-25T05:46:03,42.805,6.029,0.001,-0.019,-0.021,107.0,107.0,103.0,13.4,1505.2,347.0,-0.8,1.8,2471.69,13.29,0.019,177.0
2023-12-25T05:49:03,42.805,6.029,0.0,-0.019,-0.005,108.0,107.0,103.0,13.3,1505.2,353.5,-0.8,1.8,2471.659,13.29,0.019,180.0
2023-12-25T05:52:03,42.805,6.029,-0.003,-0.017,0.018,107.0,108.0,104.0,13.4,1505.2,346.8,-0.8,1.8,2471.698,13.29,0.017,190.0
2023-12-25T05:55:03,42.805,6.029,-0.007,-0.022,-0.013,108.0,107.0,103.0,13.4,1505.2,2.1,-0.8,1.8,2471.719,13.29,0.023,197.6
2023-12-25T05:58:03,42.805,6.029,-0.024,-0.052,-0.021,108.0,106.0,104.0,13.4,1505.2,343.6,-0.8,1.8,2471.678,13.29,0.057,204.8
2023-12-25T06:04:03,42.805,6.029,0.008,-0.013,-0.034,107.0,106.0,105.0,13.3,1505.2,351.3,-0.8,1.8,2471.774,13.28,0.015,148.4
2023-12-25T06:07:03,42.805,6.029,0.008,-0.024,-0.002,107.0,106.0,104.0,13.4,1505.2,354.5,-0.8,1.8,2471.712,13.29,0.025,161.6
2023-12-25T06:10:03,42.805,6.029,-0.01,-0.011,-0.008,106.0,106.0,103.0,13.4,1505.2,354.2,-0.8,1.8,2471.746,13.29,0.014,222.3
2023-12-25T06:13:03,42.805,6.029,-0.009,-0.024,0.014,106.0,106.0,103.0,13.3,1505.2,356.9,-0.8,1.8,2471.688,13.29,0.025,200.6
2023-12-25T06:16:03,42.805,6.029,-0.031,-0.013,0.006,106.0,106.0,104.0,13.4,1505.2,3.1,-0.8,1.8,2471.677,13.29,0.033,247.3
2023-12-25T06:19:03,42.805,6.029,-0.024,-0.027,-0.02,107.0,106.0,104.0,13.4,1505.2,351.1,-0.8,1.8,2471.688,13.29,0.036,221.6
2023-12-25T06:22:03,42.805,6.029,-0.021,-0.014,-0.02,108.0,107.0,104.0,13.4,1505.2,0.7,-0.8,1.8,2471.688,13.29,0.025,236.3
2023-12-25T06:25:03,42.805,6.029,-0.006,-0.021,-0.032,107.0,106.0,105.0,13.3,1505.2,353.2,-0.8,1.8,2471.715,13.29,0.021,195.9
2023-12-25T06:28:03,42.805,6.029,-0.013,-0.013,-0.023,108.0,107.0,104.0,13.4,1505.2,346.1,-0.7,1.8,2471.687,13.29,0.018,225.0
2023-12-25T06:31:03,42.805,6.029,-0.012,-0.02,-0.021,108.0,108.0,104.0,13.3,1505.2,341.7,-0.8,1.8,2471.704,13.29,0.023,211.0
2023-12-25T06:34:03,42.805,6.029,-0.029,-0.045,-0.004,107.0,107.0,104.0,13.4,1505.2,353.7,-0.8,1.8,2471.739,13.29,0.053,212.8
2023-12-25T06:37:03,42.805,6.029,-0.021,-0.024,-0.028,108.0,107.0,105.0,13.4,1505.2,2.2,-0.8,1.8,2471.702,13.29,0.031,221.2
2023-12-25T06:40:03,42.805,6.029,-0.007,-0.032,0.002,108.0,107.0,105.0,13.3,1505.2,358.3,-0.7,1.8,2471.689,13.29,0.032,192.3
2023-12-25T06:43:03,42.805,6.029,-0.007,-0.018,-0.025,108.0,107.0,105.0,13.4,1505.2,0.0,-0.8,1.8,2471.733,13.29,0.019,201.2
2023-12-25T06:46:03,42.805,6.029,-0.035,-0.009,0.002,108.0,107.0,104.0,13.3,1505.2,354.8,-0.8,1.8,2471.705,13.29,0.036,255.6
2023-12-25T06:49:03,42.805,6.029,-0.04,-0.03,-0.05,109.0,107.0,104.0,13.3,1505.2,354.0,-0.7,1.8,2471.707,13.29,0.05,233.1
2023-12-25T06:52:03,42.805,6.029,-0.029,-0.037,-0.001,108.0,108.0,105.0,13.4,1505.2,338.9,-0.7,1.8,2471.662,13.29,0.047,218.1
2023-12-25T06:55:03,42.805,6.029,-0.023,-0.033,-0.024,107.0,107.0,105.0,13.4,1505.2,356.1,-0.8,1.8,2471.714,13.29,0.04,214.9
2023-12-25T06:58:03,42.805,6.029,-0.026,-0.011,-0.001,108.0,106.0,105.0,13.4,1505.2,2.5,-0.8,1.8,2471.68,13.29,0.028,247.1
2023-12-25T07:04:03,42.805,6.029,-0.006,-0.027,-0.042,109.0,106.0,104.0,13.3,1505.2,349.4,-0.8,1.8,2471.725,13.28,0.027,192.5
2023-12-25T07:07:03,42.805,6.029,-0.024,-0.018,-0.017,108.0,107.0,104.0,13.3,1505.2,2.3,-0.8,1.8,2471.729,13.29,0.03,233.1
2023-12-25T07:10:03,42.805,6.029,-0.001,-0.022,-0.029,108.0,105.0,104.0,13.4,1505.2,353.2,-0.8,1.8,2471.715,13.29,0.022,182.6
2023-12-25T07:13:03,42.805,6.029,-0.027,-0.043,-0.016,108.0,107.0,105.0,13.3,1505.2,2.4,-0.8,1.9,2471.708,13.29,0.05,212.1
2023-12-25T07:16:03,42.805,6.029,-0.014,-0.02,-0.021,109.0,107.0,104.0,13.4,1505.2,346.1,-0.7,1.8,2471.693,13.29,0.024,215.0
2023-12-25T07:19:03,42.805,6.029,-0.033,-0.017,-0.028,108.0,108.0,105.0,13.4,1505.2,355.9,-0.8,1.8,2471.742,13.29,0.037,242.7
2023-12-25T07:22:03,42.805,6.029,-0.026,-0.019,-0.027,109.0,108.0,104.0,13.4,1505.2,356.5,-0.8,1.8,2471.721,13.29,0.032,233.8
2023-12-25T07:25:03,42.805,6.029,-0.004,-0.007,-0.001,107.0,108.0,105.0,13.3,1505.2,351.2,-0.8,1.8,2471.666,13.29,0.008,209.7
2023-12-25T07:28:03,42.805,6.029,-0.016,-0.025,-0.006,107.0,107.0,104.0,13.4,1505.2,347.6,-0.7,1.8,2471.709,13.29,0.029,212.6
2023-12-25T07:31:03,42.805,6.029,-0.029,-0.008,-0.027,108.0,107.0,105.0,13.4,1505.2,3.9,-0.8,1.8,2471.771,13.29,0.03,254.6
2023-12-25T07:34:03,42.805,6.029,-0.024,-0.028,-0.017,106.0,107.0,105.0,13.4,1505.2,339.6,-0.8,1.8,2471.719,13.29,0.036,220.6
2023-12-25T07:37:03,42.805,6.029,-0.037,-0.029,-0.024,108.0,107.0,104.0,13.4,1505.2,353.9,-0.8,1.8,2471.676,13.29,0.047,231.9
2023-12-25T07:40:03,42.805,6.029,-0.019,-0.011,-0.032,108.0,106.0,105.0,13.3,1505.2,358.5,-0.8,1.8,2471.661,13.29,0.021,239.9
2023-12-25T07:43:03,42.805,6.029,-0.038,-0.029,-0.016,108.0,107.0,103.0,13.4,1505.2,346.9,-0.7,1.8,2471.727,13.29,0.047,232.7
2023-12-25T07:46:03,42.805,6.029,-0.033,-0.014,-0.015,107.0,107.0,104.0,13.4,1505.2,346.7,-0.8,1.8,2471.716,13.29,0.035,247.0
2023-12-25T07:49:03,42.805,6.029,0.003,-0.036,-0.028,109.0,108.0,104.0,13.3,1505.2,346.7,-0.8,1.8,2471.701,13.29,0.036,175.2
2023-12-25T07:52:03,42.805,6.029,-0.036,-0.012,-0.025,109.0,107.0,105.0,13.3,1505.2,358.5,-0.8,1.8,2471.678,13.29,0.037,251.6
2023-12-25T07:55:03,42.805,6.029,-0.022,-0.007,-0.007,108.0,107.0,104.0,13.3,1505.2,348.5,-0.8,1.8,2471.728,13.29,0.023,252.4
2023-12-25T07:58:03,42.805,6.029,0.0,-0.017,-0.018,108.0,106.0,104.0,13.4,1505.2,354.5,-0.8,1.8,2471.693,13.29,0.017,180.0
2023-12-25T08:04:03,42.805,6.029,0.001,-0.021,-0.017,108.0,108.0,105.0,13.3,1505.2,341.8,-0.8,1.8,2471.766,13.29,0.021,177.3
2023-12-25T08:07:03,42.805,6.029,-0.036,-0.019,-0.045,108.0,107.0,104.0,13.3,1505.2,352.3,-0.8,1.8,2471.727,13.29,0.04,242.2
2023-12-25T08:10:03,42.805,6.029,-0.032,-0.014,-0.053,109.0,107.0,105.0,13.4,1505.2,353.1,-0.8,1.8,2471.727,13.29,0.034,246.4
2023-12-25T08:13:03,42.805,6.029,-0.004,-0.026,-0.041,108.0,107.0,105.0,13.4,1505.2,346.3,-0.8,1.8,2471.75,13.29,0.026,188.7
2023-12-25T08:16:03,42.805,6.029,-0.028,-0.007,-0.03,107.0,108.0,105.0,13.4,1505.2,3.1,-0.8,1.8,2471.699,13.29,0.028,256.0
2023-12-25T08:19:03,42.805,6.029,-0.011,-0.016,-0.058,107.0,108.0,103.0,13.4,1505.2,3.2,-0.8,1.8,2471.714,13.29,0.019,214.5
2023-12-25T08:22:03,42.805,6.029,-0.037,-0.001,-0.019,108.0,108.0,105.0,13.4,1505.2,0.8,-0.8,1.8,2471.696,13.29,0.037,268.5
2023-12-25T08:25:03,42.805,6.029,-0.005,-0.004,-0.014,108.0,108.0,105.0,13.4,1505.2,359.1,-0.7,1.9,2471.698,13.29,0.006,231.3
2023-12-25T08:28:03,42.805,6.029,-0.012,-0.013,0.008,107.0,107.0,105.0,13.3,1505.2,350.6,-0.8,1.8,2471.704,13.29,0.017,222.7
2023-12-25T08:31:03,42.805,6.029,-0.01,-0.015,-0.008,108.0,107.0,105.0,13.4,1505.2,347.9,-0.8,1.8,2471.72,13.29,0.018,213.7
2023-12-25T08:34:03,42.805,6.029,-0.025,-0.03,-0.019,108.0,108.0,105.0,13.4,1505.2,356.1,-0.8,1.8,2471.719,13.29,0.039,219.8
2023-12-25T08:37:03,42.805,6.029,-0.051,-0.01,-0.021,108.0,107.0,105.0,13.3,1505.2,355.9,-0.8,1.8,2471.68,13.29,0.051,258.9
2023-12-25T08:40:03,42.805,6.029,-0.028,-0.03,-0.042,109.0,107.0,104.0,13.3,1505.2,354.9,-0.7,1.8,2471.732,13.29,0.041,223.0
2023-12-25T08:43:03,42.805,6.029,-0.021,-0.035,0.007,108.0,108.0,105.0,13.4,1505.2,349.4,-0.7,1.8,2471.669,13.29,0.04,211.0
2023-12-25T08:46:03,42.805,6.029,-0.033,-0.007,-0.024,108.0,106.0,105.0,13.4,1505.2,355.1,-0.8,1.8,2471.697,13.29,0.033,258.0
2023-12-25T08:49:03,42.805,6.029,-0.013,-0.019,-0.024,108.0,108.0,104.0,13.3,1505.2,355.9,-0.8,1.8,2471.706,13.29,0.023,214.4
2023-12-25T08:52:03,42.805,6.029,-0.014,-0.011,-0.024,108.0,107.0,105.0,13.4,1505.2,352.9,-0.8,1.8,2471.666,13.29,0.017,231.8
2023-12-25T08:55:03,42.805,6.029,-0.008,0.0,-0.018,108.0,108.0,105.0,13.4,1505.2,352.9,-0.8,1.9,2471.65,13.29,0.008,270.0
2023-12-25T08:58:03,42.805,6.029,-0.019,-0.009,-0.016,109.0,106.0,106.0,13.3,1505.2,353.3,-0.7,1.8,2471.665,13.29,0.021,244.7
2023-12-25T09:04:03,42.805,6.029,-0.034,-0.014,-0.003,109.0,108.0,104.0,13.4,1505.2,0.8,-0.8,1.8,2471.708,13.29,0.036,247.6
2023-12-25T09:07:03,42.805,6.029,-0.023,-0.027,0.004,109.0,108.0,105.0,13.4,1505.2,345.9,-0.7,1.8,2471.721,13.29,0.035,220.4
2023-12-25T09:10:03,42.805,6.029,-0.019,-0.035,-0.02,109.0,109.0,105.0,13.4,1505.2,348.5,-0.8,1.8,2471.681,13.29,0.039,208.5
2023-12-25T09:13:03,42.805,6.029,-0.023,-0.022,-0.013,109.0,108.0,105.0,13.4,1505.2,350.6,-0.8,1.8,2471.717,13.29,0.031,226.3
2023-12-25T09:16:03,42.805,6.029,-0.032,-0.016,-0.027,109.0,108.0,105.0,13.4,1505.2,352.4,-0.8,1.8,2471.67,13.29,0.035,243.4
2023-12-25T09:19:03,42.805,6.029,-0.033,-0.015,-0.012,108.0,107.0,105.0,13.3,1505.2,347.7,-0.7,1.8,2471.693,13.29,0.036,245.6
2023-12-25T09:22:03,42.805,6.029,-0.029,-0.023,-0.011,109.0,108.0,104.0,13.3,1505.2,357.4,-0.8,1.8,2471.67,13.29,0.037,231.6
2023-12-25T09:25:03,42.805,6.029,-0.03,-0.019,-0.006,109.0,108.0,106.0,13.4,1505.2,350.9,-0.8,1.8,2471.696,13.29,0.035,237.7
2023-12-25T09:28:03,42.805,6.029,-0.022,-0.015,-0.006,109.0,109.0,105.0,13.3,1505.2,3.2,-0.8,1.8,2471.659,13.29,0.026,235.7
2023-12-25T09:31:03,42.805,6.029,-0.031,-0.017,-0.001,108.0,108.0,105.0,13.4,1505.2,349.3,-0.7,1.8,2471.706,13.29,0.035,241.3
2023-12-25T09:34:03,42.805,6.029,-0.022,-0.043,-0.032,109.0,108.0,106.0,13.4,1505.2,352.1,-0.7,1.8,2471.646,13.29,0.048,207.1
2023-12-25T09:37:03,42.805,6.029,-0.026,-0.004,-0.043,109.0,108.0,106.0,13.4,1505.2,352.3,-0.7,1.8,2471.704,13.29,0.026,261.3
2023-12-25T09:40:03,42.805,6.029,-0.013,-0.022,0.004,110.0,107.0,105.0,13.4,1505.2,352.2,-0.8,1.8,2471.687,13.29,0.025,210.6
2023-12-25T09:43:03,42.805,6.029,-0.029,-0.03,-0.023,109.0,108.0,105.0,13.4,1505.2,0.8,-0.8,1.8,2471.642,13.29,0.041,224.0
2023-12-25T09:46:03,42.805,6.029,-0.014,-0.012,-0.035,108.0,109.0,105.0,13.3,1505.2,1.6,-0.8,1.8,2471.642,13.29,0.018,229.4
2023-12-25T09:49:03,42.805,6.029,-0.026,-0.027,-0.011,108.0,108.0,105.0,13.4,1505.2,342.0,-0.8,1.8,2471.663,13.29,0.037,223.9